Location: Unspecified
(34.4950°S, 58.5160°W)
Time: 23:44:30
(UTC+00:00)

Meteor 2-10 Rocket - Pass Details

Date: 19 April 2026
Orbit: 732 x 882 km, 81.2° (Epoch: 16 May)

Event Time Altitude Azimuth Distance (km) Brightness Sun altitude
Rises 09:18:03 0° 339° (NNW) 3,354 6.6 -13.5°
Reaches altitude 10° 09:20:28 10° 333° (NNW) 2,450 5.9 -13.0°
Maximum altitude 09:25:52 50° 258° (WSW) 1,091 3.9 -11.9°
Drops below altitude 10° 09:31:31 10° 183° (S) 2,553 6.1 -10.8°
Sets 09:34:06 0° 177° (S) 3,508 6.9 -10.2°
